RH
38 46 43 44 42 44 49 51 50 54 56 56 57 58 58 57 55 55 56 54 52 52 51 50 46 42 42 42 43 44 43 37 28 13 7 8 9 10 21 19 17 18 21
40 46 49 48 46 46 47 52 49 50 53 54 53 56 58 56 50 54 60 54 46 47 50 52 54 52 50 47 44 43 44 46 45 43 29 10 6 7 8 9 11 11 13
45 48 51 48 49 48 45 49 55 53 46 40 37 40 45 39 34 35 39 43 42 42 45 51 54 54 54 51 51 51 48 46 47 49 49 45 26 10 7 7 8 8 8
35 30 33 53 68 63 46 37 31 22 18 16 16 16 22 24 32 49 49 57 45 47 42 48 52 53 55 52 50 48 49 52 52 49 50 53 52 43 25 12 8 11 21
16 20 35 52 39 24 18 16 15 13 12 12 12 12 12 12 14 16 16 17 18 19 20 23 32 40 46 50 49 50 48 46 48 50 52 51 51 55 53 42 71 73 35
13 15 19 20 18 16 15 14 12 12 11 12 12 14 15 16 15 13 10 7 6 6 7 9 12 14 22 40 44 44 45 53 54 50 48 52 52 49 51 58 54 86 74
14 15 16 17 16 15 13 13 12 12 13 13 14 15 13 10 7 5 4 4 4 4 4 4 5 5 5 6 9 11 14 37 42 46 52 53 53 54 53 51 58 69 85
14 14 15 15 14 13 13 12 13 13 13 15 14 12 7 5 4 4 4 5 5 6 6 6 6 6 6 6 6 6 6 8 15 16 24 32 51 59 63 61 56 56 64
18 15 13 12 12 13 13 14 12 13 14 13 8 4 4 4 5 5 6 6 6 6 6 7 7 8 8 8 8 8 8 8 7 9 11 14 21 32 51 64 67 62 55
17 12 12 12 12 13 14 12 13 14 10 7 5 4 5 5 5 5 6 6 6 7 8 9 10 11 12 13 13 13 12 12 11 10 9 9 10 13 21 41 53 68 70
18 13 12 12 13 14 12 13 13 12 9 6 5 5 5 5 5 5 6 6 7 8 10 12 13 14 14 13 13 13 14 14 14 15 14 14 12 10 13 41 45 49 64
20 14 13 13 13 13 13 13 13 13 10 6 5 5 5 5 5 5 6 7 9 11 13 13 12 10 8 8 8 8 9 10 10 11 12 12 14 15 14 20 32 46 44
21 15 14 13 14 13 14 14 14 13 10 8 6 5 5 5 5 6 6 8 10 13 12 10 8 8 8 8 6 6 5 5 5 4 5 8 11 13 13 14 17 22 53
21 16 14 14 14 13 14 14 14 12 10 8 6 6 5 5 5 6 8 12 14 13 10 9 9 10 10 8 6 5 5 4 4 4 4 4 4 6 10 15 15 15 20
20 16 14 14 14 14 14 14 14 12 10 8 7 6 5 5 6 9 14 16 12 9 9 10 10 8 5 4 4 3 3 3 3 3 3 4 4 5 6 8 14 17 17
19 16 15 14 14 14 14 14 13 11 10 8 7 6 5 7 12 17 17 11 10 11 12 11 8 5 3 2 2 2 2 2 2 2 3 3 3 4 6 8 10 13 18
17 16 15 14 14 14 14 14 12 11 9 7 6 6 8 14 17 16 10 10 13 13 9 4 3 2 2 2 2 2 2 3 3 3 5 6 6 8 9 10 12 15 18
17 16 15 14 15 14 14 13 12 10 7 6 6 11 17 17 15 10 10 12 13 7 4 3 2 2 3 3 2 3 3 4 4 5 6 8 10 13 15 16 17 17 17
18 16 15 15 15 13 14 13 11 8 6 8 14 17 15 11 10 12 13 14 7 4 3 2 2 4 4 4 3 3 3 4 4 6 7 9 11 13 15 18 19 20 20
18 17 16 15 14 13 14 11 9 7 9 16 15 11 10 11 13 15 14 7 4 3 3 3 4 4 5 4 4 4 4 4 4 4 4 6 6 8 10 14 18 22 27
18 16 15 14 13 14 11 9 7 12 17 13 11 12 15 17 15 11 6 5 4 4 4 4 4 5 6 6 5 5 5 5 4 4 4 4 5 5 6 6 7 8 10
17 16 15 14 15 13 10 8 14 17 13 12 13 13 10 7 5 5 5 5 6 6 6 6 5 4 4 6 6 6 7 6 6 6 5 5 5 5 5 5 5 7 9
17 18 15 15 14 12 9 17 18 14 12 9 7 6 6 6 6 8 10 13 18 20 19 18 15 11 8 6 6 7 8 7 8 7 7 8 7 7 6 6 6 6 5
16 14 14 15 14 11 20 20 15 13 9 7 6 7 7 9 12 13 16 23 32 36 36 35 30 22 16 13 10 9 9 10 10 11 9 11 12 12 10 9 9 8 7
14 14 15 15 13 22 24 17 15 13 11 8 8 9 10 12 19 26 34 37 38 38 36 34 31 27 23 20 16 14 12 11 11 10 10 11 12 13 13 12 12 11 11
14 15 14 18 22 22 17 19 16 15 12 9 10 12 17 27 33 34 35 36 36 36 36 36 34 32 29 27 24 21 19 17 16 16 15 15 14 16 16 17 17 15 14
Wind_Speed
11 9 8 7 6 4 1 1 2 2 3 4 5 6 7 7 8 8 8 8 9 9 9 9 8 8 9 8 8 7 7 8 7 6 6 6 6 6 7 8 9 9 10
13 9 7 7 5 3 2 1 1 2 3 4 5 6 6 7 8 8 9 9 9 9 9 9 9 9 9 9 9 8 8 8 9 8 7 7 7 7 7 9 10 10 10
10 8 8 8 6 5 3 4 4 4 5 5 6 7 8 9 9 9 10 10 10 10 10 9 9 10 10 10 11 10 10 9 9 9 9 9 9 8 8 8 9 10 10
9 8 8 7 6 4 4 4 4 4 5 6 7 8 8 9 9 8 9 9 10 10 11 12 12 12 12 13 13 13 13 13 11 11 11 11 10 10 9 9 8 7 8
8 8 8 8 6 4 2 2 3 5 6 7 8 9 9 10 11 12 13 14 14 14 14 14 14 14 14 15 15 15 15 15 15 15 13 13 13 12 11 10 9 10 10
7 8 8 7 5 3 2 3 5 6 7 8 9 10 11 12 13 13 14 13 13 13 13 14 14 15 16 16 16 16 17 17 17 17 16 16 16 15 14 13 10 12 11
8 8 7 6 4 2 2 4 5 7 8 9 10 12 13 13 13 12 12 12 12 13 14 14 15 16 16 17 17 18 19 18 18 19 18 18 18 17 16 15 14 13 15
9 8 7 5 3 3 4 5 7 8 10 11 12 13 13 13 12 12 13 13 14 14 15 16 17 18 18 19 20 20 20 20 20 20 21 20 19 18 18 18 17 16 16
9 8 7 5 4 4 5 7 8 9 11 12 13 12 12 11 11 12 13 14 15 16 18 19 20 20 22 22 23 23 23 23 23 22 23 23 22 21 20 20 19 20 20
10 9 7 6 5 5 6 8 9 10 12 12 12 11 11 12 12 13 15 16 17 19 21 22 24 25 25 25 26 27 27 26 26 26 26 26 25 24 23 22 22 23 23
11 9 8 6 6 6 7 9 10 11 12 12 12 12 12 13 14 16 17 19 21 23 24 25 25 25 25 25 25 26 27 28 28 29 29 30 28 28 26 24 26 26 25
11 10 8 7 7 8 8 9 11 12 13 13 13 14 14 16 17 19 21 22 24 25 26 26 25 24 24 23 24 24 25 25 26 27 29 30 31 31 31 28 28 28 29
12 11 9 8 8 9 9 11 13 14 14 15 15 16 18 19 20 22 24 26 27 27 26 26 26 25 25 25 25 25 25 26 27 27 28 30 31 31 32 33 33 31 30
14 11 10 10 9 10 11 12 14 16 17 17 17 18 20 21 23 26 27 28 27 27 26 26 26 27 27 27 28 28 29 28 29 30 30 31 32 32 32 32 33 34 34
14 12 11 11 11 12 13 14 16 18 18 18 19 20 22 24 26 28 29 28 27 26 26 27 28 29 30 31 32 32 32 32 32 31 31 31 32 32 33 33 33 34 34
15 13 11 12 12 13 14 16 18 19 19 20 21 22 24 25 28 29 28 26 26 27 28 28 29 29 31 31 30 28 27 27 26 26 25 26 26 27 29 30 31 33 34
15 13 12 13 14 15 16 18 19 20 21 22 23 24 26 28 29 27 26 27 27 28 29 30 30 30 27 25 22 20 19 20 20 20 19 20 21 21 22 23 25 28 30
15 13 13 14 15 16 18 20 21 21 21 23 24 27 28 27 26 26 26 27 27 28 28 28 27 25 24 22 21 19 17 17 17 18 19 20 20 18 18 20 21 23 25
14 14 16 16 17 18 20 21 22 22 23 25 27 27 26 26 26 26 27 28 28 28 27 26 24 21 20 20 19 19 19 19 18 18 20 20 21 20 19 20 21 21 23
15 16 17 18 18 20 22 23 23 23 25 26 24 24 25 25 26 26 26 28 28 27 26 23 23 21 20 18 18 19 20 20 21 21 21 22 21 22 22 21 22 23 23
17 18 19 20 20 22 23 23 24 25 24 22 22 23 25 25 25 27 27 27 27 25 24 22 21 20 20 20 20 20 21 22 22 23 23 24 23 23 24 24 23 24 23
20 20 21 21 22 23 23 23 24 22 21 21 22 23 24 25 26 26 25 25 25 25 24 23 22 21 21 20 20 20 22 24 22 22 23 24 25 24 24 25 26 26 25
20 22 22 23 23 23 24 23 20 19 20 21 23 24 24 24 23 23 22 23 24 24 24 22 21 21 20 20 20 20 21 22 24 24 25 26 26 27 26 25 25 26 27
20 23 24 25 24 24 23 20 17 17 19 22 24 24 23 22 22 22 22 23 24 24 25 24 23 22 22 21 21 21 21 22 23 24 25 25 27 28 28 27 26 27 28
25 26 27 26 25 24 21 17 16 17 21 24 24 23 23 23 23 23 23 23 24 25 26 26 25 24 23 22 22 22 22 22 23 24 24 26 27 28 28 28 28 28 28
28 28 27 26 26 22 19 17 17 21 23 23 23 21 22 23 24 24 24 24 26 26 27 27 27 27 27 25 25 24 23 23 25 25 25 25 26 28 29 29 29 30 31
Wind_Direction
176 173 168 169 165 164 144 28 12 4 360 355 360 359 358 358 359 0 3 7 8 6 5 5 8 8 10 12 15 16 8 2 358 354 341 320 297 282 270 265 263 260 259
182 187 191 187 189 198 228 251 285 291 303 311 327 329 331 330 334 335 338 340 341 343 342 342 342 344 344 345 347 349 350 348 344 345 342 331 318 305 286 272 267 267 264
188 198 206 201 201 216 236 243 266 284 298 302 306 304 309 315 320 322 323 324 326 326 323 322 320 319 320 323 325 327 329 329 328 328 328 328 326 317 300 284 276 269 263
182 193 197 189 173 192 229 255 277 299 308 314 318 322 324 324 323 324 323 320 316 315 315 313 310 309 307 308 309 309 310 311 313 312 314 314 315 314 313 310 297 288 288
165 175 168 173 180 191 203 268 309 316 322 325 327 326 325 319 319 318 316 316 315 314 312 308 305 302 300 300 301 302 302 302 302 303 302 302 303 304 305 310 309 293 306
158 158 168 172 176 189 256 300 307 319 321 322 320 320 322 317 318 316 315 317 318 319 318 315 312 309 305 302 298 296 296 297 297 296 294 293 295 297 299 302 302 287 283
170 174 177 183 187 217 281 302 312 316 314 316 318 318 316 314 317 322 325 325 326 326 324 320 316 313 308 305 303 299 297 291 288 290 290 291 290 292 292 290 290 288 282
180 179 188 194 209 252 286 306 308 311 315 316 316 316 317 322 326 326 326 324 322 320 315 312 308 305 302 300 298 295 292 291 291 290 288 285 283 284 283 284 284 281 280
185 189 192 207 233 266 291 302 307 312 313 316 318 318 321 325 326 322 320 316 313 310 307 305 302 299 296 294 292 289 288 289 288 286 282 282 279 276 275 274 273 274 274
192 192 202 223 251 275 294 302 308 313 316 319 316 319 322 321 320 315 311 309 307 307 306 304 301 298 294 290 288 287 286 285 283 282 282 281 279 276 272 273 273 270 272
198 196 214 237 260 282 293 301 310 316 319 318 316 317 315 313 310 307 308 310 311 309 305 301 298 295 293 291 289 287 285 283 283 281 280 278 277 277 273 269 270 270 266
206 208 224 244 265 280 292 303 311 317 317 314 315 312 310 309 309 312 314 313 311 311 310 308 307 305 302 298 295 291 288 285 282 280 277 278 275 274 274 270 265 265 266
211 217 231 250 270 283 294 304 313 316 317 316 312 310 310 312 314 314 314 313 314 314 312 309 306 304 302 299 295 292 290 289 286 281 278 276 273 271 269 270 268 265 263
215 222 237 257 271 281 293 308 314 318 318 315 313 313 311 314 314 314 313 313 313 312 310 309 308 306 302 300 297 294 291 287 284 283 281 278 277 274 271 269 267 266 265
218 228 243 262 273 287 302 310 315 318 315 313 313 311 311 315 314 312 313 314 314 315 314 313 311 308 305 302 298 294 291 288 285 282 280 279 277 277 275 273 270 268 266
223 233 250 266 278 292 301 310 314 313 312 312 311 311 312 311 311 314 314 315 316 317 316 313 310 307 304 302 299 296 294 290 290 288 284 281 279 279 280 279 276 271 267
229 241 257 271 283 294 302 308 309 310 310 311 312 310 310 313 315 315 314 317 318 318 317 315 313 310 308 307 306 302 296 295 294 293 290 286 284 281 279 280 277 275 272
236 250 264 273 284 293 300 304 307 307 311 310 309 311 314 315 314 314 315 314 315 315 315 314 315 314 313 313 312 309 302 297 296 294 290 287 286 283 280 276 274 273 272
242 256 266 276 285 294 301 304 305 308 309 308 311 314 313 312 311 313 313 313 314 317 318 320 319 316 313 311 313 311 308 304 300 295 292 288 286 284 280 277 276 273 272
252 261 272 279 289 297 299 302 306 307 307 310 312 312 311 310 311 311 313 315 317 318 320 324 322 317 312 313 312 311 308 304 302 299 297 294 292 291 290 286 284 282 280
259 268 276 283 291 295 300 303 304 306 308 309 311 310 308 309 311 312 316 317 318 321 324 325 324 318 314 313 313 313 310 308 306 304 301 299 295 292 290 287 284 281 280
262 270 275 284 288 295 297 299 302 304 307 309 308 306 306 309 311 312 314 317 320 323 324 326 327 323 319 315 312 309 307 305 302 303 299 295 293 291 290 290 288 285 282
265 269 274 280 288 291 292 296 297 300 306 308 307 307 307 309 309 311 314 316 318 319 320 321 320 317 315 314 312 310 306 301 302 300 297 294 292 290 288 286 284 283 280
259 265 273 279 283 284 288 287 291 301 309 312 310 308 307 307 308 309 312 314 315 317 317 317 316 314 313 312 311 309 306 304 304 304 303 302 299 299 297 293 288 284 282
263 267 271 276 276 278 278 277 288 302 315 314 309 307 307 307 308 310 312 314 314 316 316 318 317 315 312 310 310 309 307 306 304 303 300 297 297 295 293 291 288 283 280
262 265 266 266 269 272 269 275 288 306 315 315 309 308 307 308 308 311 311 314 314 314 315 316 315 315 314 313 312 311 310 308 307 305 302 299 297 294 294 292 289 287 286